Location: Arbon
(43.0005°N, 0.7472°E)
Time: 02:08:35
(UTC+00:00)

Cosmos 1538 Rocket - Pass Details

Date: 07 August 2020
Orbit: 752 x 792 km, 74.0° (Epoch: 27 September)

Event Time Altitude Azimuth Distance (km) Brightness Sun altitude
Rises 01:28:18 0° 340° (NNW) 3,213 7.9 -27.5°
Reaches altitude 10° 01:30:40 10° 342° (NNW) 2,284 7.0 -27.3°
Maximum altitude 01:35:51 79° 70° (ENE) 771 3.9 -26.9°
Enters shadow 01:35:57 79° 86° (E) 772 3.9 -26.9°
